www.pogodaiklimat.ru

Погода и климат >> Архив погоды >> Россия >> Астраханская область >> Досанг


ПОГОДА в Досанге

  • Прогноз погоды в Досанге
  • Монитор погоды в Досанге
  • Климат города

АРХИВ ПОГОДЫ в Досанге

Время (UTC), дата Ветер
(напр.,м/с)
 
Видим.   Явления Облачность Т
(С)
Тd
(С)
f
(%)
Тe
(С)
Тes
(С)
Комфортность P
(гПа)
Po
(гПа)
Тmin
(С)
Tmax
(С)
R
(мм)
R24
(мм)
S
(см)
09 19.04 Ю 5-10
{11}
20 км 10/0
[Ac As]
+18.2 +1.5 33 +18 +20 1008.3 1010.4
12 19.04 Ю 5
{11}
20 км в посл. час ливневой дождь 10/10 300 м
[Cu Sc]
+19.0 +4.9 39 +19 +19 1006.0 1008.1
15 19.04 З 2
{10}
20 км 10/4 300 м
[Cu Sc Ac As]
+16.1 +5.5 49 +16 +16 1005.3 1007.5 +20.3 0.0
18 19.04 ЮВ 2 10 км ясно +9.7 +4.8 71 +8 +8 1004.6 1006.8
21 19.04 ЮЗ 3 10 км 10/0
[Ac und]
+12.0 +6.4 69 +11 +11 1003.4 1005.5
00 20.04 ЮЗ 3 10 км 10/0
[Ac As]
+9.9 +5.8 76 +8 +8 1002.9 1005.1
03 20.04 Ю 3 20 км 10/0
[Ac cast Cc]
+8.9 +6.2 83 +6 +7 1002.0 1004.2 +8.0
06 20.04 ЮЗ 5-11
{11}
20 км {ливн. осадки} 10/10 300 м
[Sc diur, vesp]
+11.3 +7.3 76 +9 +9 1001.7 1003.9
09 20.04 ЮЗ 5
{11}
20 км в посл. час ливневой дождь 10/8 600 м
[Sc diur, vesp Ci sp]
+14.1 +6.4 60 +13 +14 1001.2 1003.3
12 20.04 ЮЗ 4
{11}
20 км {ливн. осадки} 10/6 600 м
[Cb cap Ci sp]
+15.4 +6.7 56 +15 +16 1001.6 1003.7
15 20.04 ЮЗ 3
{12}
20 км {ливн. осадки} 5/3 600 м
[Cu Sc Ci sp]
+12.9 +7.7 71 +12 +12 1002.2 1004.3 +15.5 0.3
18 20.04 ЮЗ 2 10 км в посл. час ливневой дождь ясно +9.8 +5.9 77 +8 +8 1003.5 1005.7
21 20.04 ЮЗ 2 10 км ясно +7.8 +6.1 89 +6 +6 1003.9 1006.1
00 21.04 З 1 10 км 6/0
[Ac trans]
+7.2 +5.7 90 +6 +6 1003.9 1006.1
03 21.04 З 2 500 м туман ?/? +6.7 +5.9 95 +4 +4 1005.1 1007.3 +6.7 0.3
06 21.04 СЗ 5 4000 м дымка {туман} 10/10 600 м
[Sc diur, vesp]
+10.7 +8.3 85 +8 +8 1007.0 1009.2 +6.7
09 21.04 СЗ 7-10
{10}
20 км 10/10 600 м
[Sc]
+11.1 +6.2 72 +8 +8 1008.7 1010.9
12 21.04 СЗ 5-11
{11}
20 км 9/9 600 м
[Cu Sc]
+14.5 +1.0 40 +13 +14 1008.9 1011.0
15 21.04 СЗ 4
{11}
20 км 1/0
[Ci fib]
+13.0 -4.6 29 +12 +12 1009.9 1012.0 +15.0
18 21.04 З 1 10 км ясно +7.5 -2.0 51 +7 +7 1010.7 1012.9
21 21.04 Ю 2 10 км ясно +5.5 -0.7 64 +3 +3 1010.2 1012.5
00 22.04 Ю 2 10 км ясно +4.3 -1.1 68 +2 +2 1008.8 1011.0
03 22.04 Ю 3 20 км 5/0
[Ac trans Cc]
+6.2 +1.5 72 +3 +4 1007.4 1009.6 +4.2
06 22.04 ЮЗ 6-12
{12}
20 км пыльный позёмок 5/0
[Cc]
+15.5 +3.8 46 +14 +18 1005.6 1007.8
09 22.04 ЮЗ 6-13
{13}
20 км пыльный позёмок 10/3 600 м
[Cu hum Ac lent Cc]
+18.2 +0.9 31 +18 +20 1003.5 1005.7
12 22.04 З 4
{15}
10 км слабый дождь 10/10 300 м
[Frnb Ns]
+11.0 +8.6 85 +9 +9 1004.0 1006.2
15 22.04 ЮЗ 4 20 км {дождь} 9/0
[Ac cast Cc]
+12.3 +8.7 79 +10 +11 1003.5 1005.6 +18.8 1
18 22.04 ЮЗ 3 10 км {дождь} 4/0
[Cc]
+11.0 +8.3 83 +9 +9 1004.7 1006.9
21 22.04 Ю 3
{11}
10 км {ливн. осадки} 5/0
[Ac cast Ci sp]
+10.3 +7.5 83 +8 +8 1003.9 1006.0
00 23.04 ЮЗ 3 10 км {ливн. осадки} 3/0
[Ci fib]
+8.9 +5.9 81 +6 +6 1004.8 1007.0
03 23.04 ЮЗ 2 20 км {ливн. осадки} 5/3 600 м
[Sc Ac cuf Ci ing]
+8.2 +6.5 89 +6 +7 1005.0 1007.2 +8.2 0.8
06 23.04 З 5 20 км {ливн. осадки} 3/3 600 м
[Cu Sc Ac trans]
+12.6 +4.9 59 +11 +14 1006.9 1009.1
09 23.04 З 5
{13}
20 км 9/9 600 м
[Cu med, cong]
+14.0 +2.4 45 +13 +13 1007.4 1009.6
12 23.04 З 6-12
{13}
20 км 6/6 600 м
[Cu med, cong]
+15.2 -0.3 35 +14 +15 1007.2 1009.4
15 23.04 СЗ 4
{12}
20 км 4/3 300 м
[Sc diur, vesp Ac trans]
+11.7 +1.5 50 +10 +10 1009.4 1011.6 +16.3
18 23.04 С 4 10 км 10/10 300 м
[Sc]
+7.5 +1.1 64 +4 +4 1012.3 1014.6
21 23.04 СЗ 3 10 км {ливн. осадки} 3/0
[Ac cuf]
+5.1 -0.3 68 +2 +2 1013.9 1016.1
00 24.04 З 1 10 км {ливн. осадки} 4/0
[Ac trans]
+2.6 -0.8 78 +1 +1 1015.4 1017.7
03 24.04 З 2 20 км ясно +2.4 -0.9 79 -1 0 1017.0 1019.3 +1.1 0.3
06 24.04 З 5 20 км 1/1 600 м
[Cu hum]
+8.9 -7.7 30 +6 +11 1018.6 1020.8
09 24.04 З 5-11
{11}
20 км 1/1 600 м
[Cu hum]
+11.5 -8.8 23 +10 +17 1018.7 1020.9
12 24.04 З 5 20 км ясно +12.9 -8.0 23 +11 +16 1018.5 1020.7
15 24.04 З 3
{11}
20 км ясно +12.1 -7.6 24 +11 +12 1018.5 1020.7 +13.5
18 24.04 Ю 1 10 км ясно +6.1 -3.3 51 +6 +6 1019.7 1022.0
21 24.04 Ю 1 10 км ясно +3.5 -2.8 63 +2 +2 1019.2 1021.5
00 25.04 Ю 2 10 км 10/0
[Cs]
+5.6 -3.0 54 +4 +4 1018.6 1020.9
03 25.04 Ю 2 20 км 10/0
[Cs]
+7.8 -0.5 56 +6 +7 1019.1 1021.3 +3.3
06 25.04 Ю 3 20 км 10/0
[Ac As]
+10.6 +3.9 63 +9 +11 1018.8 1021.0
09 25.04 Ю 2 20 км {дождь} 10/3 300 м
[Frnb As op]
+13.0 +7.2 68 +12 +15 1018.0 1020.2
12 25.04 ЮЗ 3 20 км {дождь} 10/10 600 м
[Cu Sc]
+16.6 +4.7 45 +16 +16 1016.4 1018.5
15 25.04 Ю 3 20 км 10/5 300 м
[Frnb As op]
+14.8 +4.9 51 +14 +14 1016.4 1018.6 +17.2 0.8
18 25.04 Ю 4 10 км 10/0
[Ac As]
+12.5 +5.8 64 +11 +11 1017.2 1019.4
21 25.04 Ю 4 10 км 10/10 600 м
[Sc]
+10.6 +8.1 85 +8 +8 1016.8 1019.0
00 26.04 Ю 3 10 км 3/0
[Ci fib]
+9.1 +8.1 93 +7 +7 1016.4 1018.6
03 26.04 Ю 2 20 км 6/4 600 м
[Sc diur, vesp Ci fib]
+9.3 +7.7 90 +8 +8 1017.2 1019.4 +9.1
06 26.04 Ю 3 20 км 10/0
[Cc]
+16.9 +8.9 59 +17 +24 1017.5 1019.7

 

Местоположение метеостанции Досанг (Астраханская область, Россия): широта 46.92 долгота 47.93 высота над уровнем моря -19 м.

В архиве по умолчанию представлена погода в Досанге за последнюю неделю. Архивные данные за месяц целиком и за предыдущие месяцы, начиная с января 2011 года, Вы можете получить, выбрав интересующий диапазон дат из раскрывающегося списка и нажав кнопку "Ввод!".


*Определитесь, кто Вы:
робот инопланетянин человек

Внимание! Время в таблицах - всемирное. Для получения местного времени необходимо прибавить поправку, которая в Досанге равна 4 ч.

Смотрите также архив погоды в соседних городах и на ближайших метеорологических станциях:

Погода в Астрахани (Астраханская область, Россия) (71 км)
Погода в Харабали (Астраханская область, Россия) (74 км)
Погода в Зеленге (Астраханская область, Россия) (98 км)
Погода в Ганюшкино (Атырауская область, Казахстан) (108 км)
Погода в Юсте (Калмыкия, Россия) (124 км)
Погода в Жанауштогане (Атырауская область, Казахстан) (127 км)
Погода в Лимане (Астраханская область, Россия) (136 км)
Погода в Утте (Калмыкия, Россия) (158 км)
Погода в Исатай (Атырауская область, Казахстан) (163 км)
Погода в Верхнем Баскунчаке (Астраханская область, Россия) (170 км)

Пояснения к столбцам:

Ветер - указаны скорость ветра в м/с - средняя за 10 мин, порывы в срок и между сроками (в фигурных скобках) и направление, откуда дует ветер: С - северный, СВ - северо-восточный, В - восточный, ЮВ - юго-восточный, Ю - южный, ЮЗ - юго-западный, З - западный, СЗ - северо-западный.
Видимость - горизонтальная дальность видимости в метрах или километрах. При видимости от 1 до 10 км при отсутствии осадков обычно наблюдается дымка, при ухудшении видимости до 1 км и менее - туман. В сухую погоду видимость может ухудшаться дымом, пылью или мглою.
Явления - указаны атмосферные явления, наблюдавшиеся в срок или в последний час перед сроком; фигурными скобками обозначены явления, наблюдавшиеся между сроками (за 1-3 часа до срока); квадратными скобками обозначены град или гололедные отложения с указанием их диаметра в мм.
Облачность - указаны через наклонную черту общая и нижняя облачность в баллах и высота нижней границы облаков в метрах; квадратными скобками обозначены формы облаков: Ci - перистые, Cs - перисто-слоистые, Cc - перисто-кучевые, Ac - высококучевые, As - высокослоистые, Sc - слоисто-кучевые, Ns - слоисто-дождевые, Cu - кучевые, Cb - кучево-дождевые. Подробнее классификацию облаков см. в Атласе облаков (PDF).
T - Температура воздуха - температура, измеренная на высоте 2 м над землей.
Td - Температура точки росы - температура, при понижении до которой содержащийся в воздухе водяной пар достигнет насыщения.
f - Относительная влажность воздуха - влажноcть воздуха, измеренная на высоте 2 м над землей.
Te - Эффективная температура - температура, которую ощущает одетый по сезону человек в тени. Характеристика душности погоды. При расчете учитывается влияние влажности воздуха и скорости ветра на теплоощущения человека.
Tes - Эффективная температура на солнце - температура, которую ощущает человек, с поправкой на солнечный нагрев. Характеристика знойности погоды. Зависит от высоты солнца над горизонтом, облачности и скорости ветра. Ночью, в пасмурную погоду, а также при ветре 12 м/с и более поправка равна нулю.
P - Атмосферное давление - приведенное к уровню моря атмосферное давление.
Po - Атмосферное давление - измеренное на уровне метеостанции атмосферное давление.
Tmin - Минимальная температура - минимум температуры воздуха на высоте 2 м над землей.
Tmax - Максимальная температура - максимум температуры воздуха на высоте 2 м над землей.
R - Количество осадков - Количество выпавших осадков за период времени, мм. При наведении курсора мыши на число - период времени, за который выпало указанное количество осадков.
R24 - Количество осадков - Количество выпавших осадков за 24 часа, мм.
S - Снежный покров - Высота снежного покрова, см. При наведении курсора мыши на число - состояние снежного покрова и степень покрытия местности в баллах.